RYR1CA EGSS-LIRP

Flight info

Callsign RYR1CA
Flight time 1h 53m
Altitude 35000
Route CLN M84 KONAN UL607 KOK DCT IDOSA DCT SUTAL DCT GTQ DCT DEVDI DCT ODINA DCT SRN DCT OSBUL DCT EKPAL DCT MIVKI
Aircraft B38M/M-SDE1FGHILORVWXY/HB1

Departure

Time 2026-04-21 09:22
Airport London Stansted Airport (EGSS)

Arrival

Time 2026-04-21 11:15
Airport Pisa International Airport (LIRP)
Time Latitude Longitude Altitude Speed Heading
2026-04-21 08:52 51.89088 0.25652 356 ft 0 kts 43°
2026-04-21 09:10 51.89084 0.25646 356 ft 2 kts 43°
2026-04-21 09:11 51.89074 0.25630 356 ft 2 kts 43°
2026-04-21 09:11 51.89062 0.25614 356 ft 2 kts 43°
2026-04-21 09:11 51.89054 0.25601 356 ft 0 kts 43°
2026-04-21 09:11 51.89043 0.25589 356 ft 2 kts
2026-04-21 09:12 51.89028 0.25592 356 ft 2 kts 331°
2026-04-21 09:12 51.89021 0.25599 356 ft 1 kts 311°
2026-04-21 09:12 51.89017 0.25607 356 ft 0 kts 311°
2026-04-21 09:15 51.89041 0.25564 356 ft 11 kts 311°
2026-04-21 09:15 51.89103 0.25456 356 ft 11 kts 311°
2026-04-21 09:15 51.89148 0.25375 356 ft 8 kts 312°
2026-04-21 09:15 51.89187 0.25289 356 ft 11 kts 300°
2026-04-21 09:16 51.89234 0.25152 356 ft 15 kts 280°
2026-04-21 09:16 51.89176 0.24978 356 ft 20 kts 224°
2026-04-21 09:16 51.89055 0.24795 356 ft 26 kts 221°
2026-04-21 09:16 51.88917 0.24594 356 ft 24 kts 223°
2026-04-21 09:17 51.88800 0.24413 356 ft 22 kts 223°
2026-04-21 09:17 51.88697 0.24252 356 ft 18 kts 222°
2026-04-21 09:17 51.88605 0.24117 356 ft 18 kts 223°
2026-04-21 09:17 51.88511 0.23975 356 ft 18 kts 224°
2026-04-21 09:18 51.88413 0.23829 356 ft 19 kts 222°
2026-04-21 09:18 51.88314 0.23672 356 ft 20 kts 227°
2026-04-21 09:18 51.88222 0.23531 356 ft 16 kts 218°
2026-04-21 09:18 51.88147 0.23436 356 ft 11 kts 220°
2026-04-21 09:19 51.88074 0.23324 356 ft 19 kts 224°
2026-04-21 09:19 51.87974 0.23169 356 ft 18 kts 223°
2026-04-21 09:19 51.87890 0.23042 356 ft 14 kts 223°
2026-04-21 09:19 51.87829 0.22937 356 ft 7 kts 246°
2026-04-21 09:20 51.87828 0.22887 356 ft 2 kts 285°
2026-04-21 09:20 51.87840 0.22850 356 ft 8 kts 304°
2026-04-21 09:20 51.87907 0.22731 356 ft 16 kts 314°
2026-04-21 09:20 51.87991 0.22720 356 ft 11 kts 39°
2026-04-21 09:21 51.88038 0.22790 356 ft 7 kts 43°
2026-04-21 09:21 51.88064 0.22829 355 ft 3 kts 43°
2026-04-21 09:21 51.88154 0.22966 356 ft 51 kts 42°
2026-04-21 09:21 51.88599 0.23633 356 ft 119 kts 42°
2026-04-21 09:22 51.89334 0.24723 484 ft 156 kts 43°
2026-04-21 09:22 51.90097 0.25962 968 ft 163 kts 44°
2026-04-21 09:22 51.90944 0.27269 1499 ft 167 kts 44°
2026-04-21 09:22 51.91587 0.28805 2007 ft 175 kts 65°
2026-04-21 09:23 51.91830 0.30841 2317 ft 192 kts 88°
2026-04-21 09:23 51.91573 0.33037 2613 ft 209 kts 108°
2026-04-21 09:23 51.90911 0.35234 2909 ft 223 kts 117°
2026-04-21 09:23 51.90130 0.37447 3191 ft 234 kts 118°
2026-04-21 09:24 51.89280 0.39784 3405 ft 246 kts 118°
2026-04-21 09:24 51.88448 0.42239 3790 ft 248 kts 114°
2026-04-21 09:24 51.87553 0.44671 4126 ft 258 kts 123°
2026-04-21 09:24 51.86499 0.46984 4794 ft 261 kts 125°
2026-04-21 09:25 51.85364 0.49419 5160 ft 278 kts 126°
2026-04-21 09:25 51.84185 0.51937 5806 ft 283 kts 126°
2026-04-21 09:25 51.82984 0.54498 6438 ft 288 kts 126°
2026-04-21 09:25 51.81779 0.57064 7060 ft 292 kts 127°
2026-04-21 09:26 51.80540 0.59700 7683 ft 296 kts 127°
2026-04-21 09:26 51.79297 0.62340 8293 ft 300 kts 128°
2026-04-21 09:26 51.78033 0.65023 8900 ft 303 kts 129°
2026-04-21 09:26 51.76750 0.67745 9505 ft 305 kts 130°
2026-04-21 09:27 51.75467 0.70469 10097 ft 308 kts 130°
2026-04-21 09:27 51.74136 0.73283 10347 ft 323 kts 130°
2026-04-21 09:27 51.72754 0.76200 10559 ft 338 kts 130°
2026-04-21 09:27 51.71314 0.79242 11072 ft 341 kts 131°
2026-04-21 09:28 51.69883 0.82264 11643 ft 343 kts 131°
2026-04-21 09:28 51.68427 0.85336 12241 ft 344 kts 131°
2026-04-21 09:28 51.66970 0.88401 12713 ft 350 kts 132°
2026-04-21 09:28 51.65467 0.91559 13207 ft 356 kts 132°
2026-04-21 09:29 51.63963 0.94716 13701 ft 361 kts 131°
2026-04-21 09:29 51.62420 0.97953 14204 ft 367 kts 131°
2026-04-21 09:29 51.60861 1.01216 14708 ft 373 kts 131°
2026-04-21 09:29 51.59269 1.04545 15219 ft 379 kts 131°
2026-04-21 09:30 51.57652 1.07923 15726 ft 385 kts 131°
2026-04-21 09:30 51.56003 1.11363 16219 ft 391 kts 131°
2026-04-21 09:30 51.54338 1.14833 16700 ft 396 kts 130°
2026-04-21 09:30 51.52647 1.18350 17170 ft 402 kts 130°
2026-04-21 09:31 51.50927 1.21926 17634 ft 407 kts 130°
2026-04-21 09:31 51.49185 1.25544 18090 ft 413 kts 129°
2026-04-21 09:31 51.47443 1.29158 18533 ft 418 kts 129°
2026-04-21 09:31 51.45642 1.32891 18980 ft 423 kts 128°
2026-04-21 09:32 51.43853 1.36598 19413 ft 427 kts 128°
2026-04-21 09:32 51.42029 1.40392 19847 ft 432 kts 127°
2026-04-21 09:32 51.40181 1.44230 20278 ft 436 kts 127°
2026-04-21 09:32 51.38321 1.48088 20702 ft 440 kts 126°
2026-04-21 09:33 51.36451 1.51960 21119 ft 444 kts 126°
2026-04-21 09:33 51.34551 1.55887 21535 ft 448 kts 125°
2026-04-21 09:33 51.32647 1.59817 21944 ft 451 kts 124°
2026-04-21 09:33 51.30732 1.63763 22349 ft 454 kts 124°
2026-04-21 09:34 51.28789 1.67763 22735 ft 457 kts 124°
2026-04-21 09:34 51.26840 1.71782 23146 ft 454 kts 124°
2026-04-21 09:34 51.24926 1.75715 23169 ft 449 kts 124°
2026-04-21 09:34 51.22979 1.79724 23258 ft 460 kts 123°
2026-04-21 09:35 51.21022 1.83743 23634 ft 463 kts 123°
2026-04-21 09:35 51.19062 1.87758 24018 ft 465 kts 122°
2026-04-21 09:35 51.17068 1.91872 24408 ft 465 kts 120°
2026-04-21 09:35 51.15364 1.96156 24791 ft 458 kts 110°
2026-04-21 09:36 51.14053 2.00733 25203 ft 449 kts 101°
2026-04-21 09:36 51.13125 2.05389 25635 ft 439 kts 92°
2026-04-21 09:36 51.12537 2.10110 26085 ft 427 kts 85°
2026-04-21 09:36 51.12225 2.14731 26545 ft 420 kts 82°
2026-04-21 09:37 51.11974 2.19349 27008 ft 418 kts 81°
2026-04-21 09:37 51.11729 2.23884 27458 ft 415 kts 81°
2026-04-21 09:37 51.11482 2.28432 27904 ft 413 kts 81°
2026-04-21 09:37 51.11231 2.33015 28346 ft 410 kts 81°
2026-04-21 09:38 51.10984 2.37487 28771 ft 408 kts 80°
2026-04-21 09:38 51.10738 2.41937 29187 ft 405 kts 80°
2026-04-21 09:38 51.10488 2.46408 29597 ft 402 kts 80°
2026-04-21 09:38 51.10240 2.50816 29992 ft 400 kts 80°
2026-04-21 09:39 51.09992 2.55197 30376 ft 397 kts 80°
2026-04-21 09:39 51.09728 2.59526 30745 ft 399 kts 83°
2026-04-21 09:39 51.09095 2.63971 31158 ft 413 kts 92°
2026-04-21 09:39 51.08033 2.68271 31619 ft 424 kts 100°
2026-04-21 09:40 51.06594 2.72424 32174 ft 428 kts 105°
2026-04-21 09:40 51.05038 2.76385 32819 ft 420 kts 106°
2026-04-21 09:40 51.03487 2.80251 33509 ft 409 kts 106°
2026-04-21 09:40 51.01979 2.83994 34201 ft 396 kts 105°
2026-04-21 09:41 51.00499 2.87678 34542 ft 394 kts 105°
2026-04-21 09:41 50.99043 2.91324 34754 ft 394 kts 105°
2026-04-21 09:41 50.97567 2.95018 34980 ft 393 kts 105°
2026-04-21 09:41 50.96089 2.98719 35031 ft 396 kts 105°
2026-04-21 09:42 50.93107 3.06190 35036 ft 404 kts 105°
2026-04-21 09:42 50.90063 3.13786 35033 ft 409 kts 106°
2026-04-21 09:43 50.87009 3.21357 35007 ft 408 kts 106°
2026-04-21 09:43 50.83942 3.28942 35007 ft 409 kts 106°
2026-04-21 09:44 50.80878 3.36497 35007 ft 409 kts 106°
2026-04-21 09:44 50.77805 3.44049 35007 ft 409 kts 106°
2026-04-21 09:45 50.74730 3.51590 35006 ft 409 kts 106°
2026-04-21 09:45 50.71623 3.59184 35006 ft 409 kts 106°
2026-04-21 09:46 50.68556 3.66661 35013 ft 409 kts 107°
2026-04-21 09:46 50.65440 3.74220 35019 ft 411 kts 107°
2026-04-21 09:47 50.62311 3.81785 35019 ft 410 kts 107°
2026-04-21 09:47 50.59193 3.89312 35019 ft 410 kts 107°
2026-04-21 09:48 50.56072 3.96828 35019 ft 410 kts 107°
2026-04-21 09:48 50.52940 4.04353 35018 ft 410 kts 107°
2026-04-21 09:49 50.49791 4.11898 35018 ft 410 kts 107°
2026-04-21 09:49 50.46661 4.19382 35018 ft 410 kts 107°
2026-04-21 09:50 50.44567 4.24377 35018 ft 410 kts 107°
2026-04-21 09:50 50.40371 4.34360 35017 ft 410 kts 107°
2026-04-21 09:51 50.37237 4.41795 35017 ft 410 kts 107°
2026-04-21 09:51 50.34097 4.49223 35017 ft 409 kts 107°
2026-04-21 09:52 50.30979 4.56580 35017 ft 409 kts 107°
2026-04-21 09:52 50.27787 4.64090 35016 ft 409 kts 107°
2026-04-21 09:53 50.24693 4.71342 35030 ft 412 kts 107°
2026-04-21 09:53 50.21507 4.78773 35030 ft 411 kts 107°
2026-04-21 09:54 50.18322 4.86187 35030 ft 411 kts 107°
2026-04-21 09:54 50.15130 4.93600 35030 ft 411 kts 107°
2026-04-21 09:55 50.11941 5.00987 35029 ft 411 kts 107°
2026-04-21 09:55 50.08733 5.08402 35029 ft 411 kts 107°
2026-04-21 09:56 50.05543 5.15755 35029 ft 411 kts 107°
2026-04-21 09:56 50.02347 5.23102 35029 ft 411 kts 107°
2026-04-21 09:57 49.99119 5.30506 35029 ft 411 kts 107°
2026-04-21 09:57 49.95893 5.37883 35028 ft 410 kts 107°
2026-04-21 09:58 49.92680 5.45213 35028 ft 410 kts 107°
2026-04-21 09:58 49.89472 5.52513 35017 ft 410 kts 107°
2026-04-21 09:59 49.86270 5.59778 35002 ft 410 kts 107°
2026-04-21 09:59 49.83044 5.67078 35013 ft 411 kts 108°
2026-04-21 10:00 49.79873 5.74216 35016 ft 412 kts 108°
2026-04-21 10:00 49.76613 5.81528 35016 ft 412 kts 108°
2026-04-21 10:01 49.73297 5.88846 35016 ft 418 kts 111°
2026-04-21 10:01 49.69625 5.95874 35015 ft 422 kts 112°
2026-04-21 10:02 49.64039 6.06425 35015 ft 421 kts 112°
2026-04-21 10:03 49.60320 6.13469 35015 ft 421 kts 112°
2026-04-21 10:03 49.56643 6.20425 35015 ft 421 kts 112°
2026-04-21 10:04 49.52907 6.27480 35015 ft 421 kts 112°
2026-04-21 10:04 49.49183 6.34442 35014 ft 427 kts 115°
2026-04-21 10:04 49.46982 6.37654 35023 ft 447 kts 124°
2026-04-21 10:05 49.44398 6.40457 35021 ft 465 kts 133°
2026-04-21 10:05 49.41478 6.42826 35022 ft 479 kts 139°
2026-04-21 10:05 49.38409 6.44949 35016 ft 483 kts 141°
2026-04-21 10:06 49.32258 6.49048 35017 ft 483 kts 141°
2026-04-21 10:06 49.26106 6.53197 35018 ft 482 kts 141°
2026-04-21 10:07 49.19937 6.57355 35019 ft 482 kts 141°
2026-04-21 10:07 49.13815 6.61473 35020 ft 482 kts 141°
2026-04-21 10:08 49.07675 6.65594 35025 ft 483 kts 141°
2026-04-21 10:08 49.02065 6.69359 35036 ft 484 kts 141°
2026-04-21 10:09 48.95870 6.73526 35037 ft 483 kts 141°
2026-04-21 10:09 48.89760 6.77697 35037 ft 483 kts 141°
2026-04-21 10:10 48.83762 6.81784 35014 ft 482 kts 141°
2026-04-21 10:10 48.77596 6.85975 35015 ft 483 kts 141°
2026-04-21 10:11 48.71482 6.90118 35016 ft 482 kts 141°
2026-04-21 10:11 48.65345 6.94265 35017 ft 482 kts 141°
2026-04-21 10:12 48.59186 6.98416 35017 ft 482 kts 141°
2026-04-21 10:12 48.53067 7.02528 35018 ft 482 kts 141°
2026-04-21 10:13 48.46928 7.06643 35019 ft 482 kts 141°
2026-04-21 10:13 48.40780 7.10754 35020 ft 482 kts 141°
2026-04-21 10:14 48.34653 7.14838 35021 ft 482 kts 141°
2026-04-21 10:14 48.28505 7.18926 35022 ft 482 kts 141°
2026-04-21 10:15 48.22354 7.23005 35023 ft 482 kts 141°
2026-04-21 10:15 48.16235 7.27052 35024 ft 482 kts 141°
2026-04-21 10:16 48.10075 7.31115 35025 ft 482 kts 141°
2026-04-21 10:16 48.03928 7.35159 35026 ft 482 kts 141°
2026-04-21 10:17 47.97773 7.39197 35027 ft 482 kts 141°
2026-04-21 10:17 47.91631 7.43215 35028 ft 482 kts 141°
2026-04-21 10:18 47.85719 7.47073 35005 ft 482 kts 141°
2026-04-21 10:18 47.79562 7.51082 35004 ft 482 kts 141°
2026-04-21 10:19 47.73434 7.55060 35005 ft 482 kts 140°
2026-04-21 10:19 47.67384 7.59250 35006 ft 478 kts 139°
2026-04-21 10:20 47.61364 7.63503 35007 ft 478 kts 139°
2026-04-21 10:20 47.55397 7.67709 35023 ft 480 kts 139°
2026-04-21 10:21 47.49378 7.71937 35024 ft 479 kts 139°
2026-04-21 10:21 47.43365 7.76147 35025 ft 479 kts 139°
2026-04-21 10:22 47.37333 7.80358 35026 ft 479 kts 140°
2026-04-21 10:22 47.31275 7.84575 35027 ft 479 kts 140°
2026-04-21 10:23 47.25226 7.88775 35028 ft 479 kts 140°
2026-04-21 10:23 47.19196 7.92950 35028 ft 479 kts 140°
2026-04-21 10:24 47.13143 7.97131 35029 ft 479 kts 140°
2026-04-21 10:24 47.07130 8.01272 35030 ft 479 kts 140°
2026-04-21 10:25 47.01056 8.05445 35031 ft 479 kts 140°
2026-04-21 10:25 46.95013 8.09586 35032 ft 479 kts 140°
2026-04-21 10:26 46.89076 8.13644 35023 ft 479 kts 139°
2026-04-21 10:26 46.83165 8.17674 35009 ft 479 kts 139°
2026-04-21 10:27 46.77122 8.21784 35009 ft 479 kts 140°
2026-04-21 10:27 46.71073 8.25887 35010 ft 479 kts 139°
2026-04-21 10:28 46.65025 8.29980 35011 ft 479 kts 140°
2026-04-21 10:28 46.58956 8.34076 35012 ft 479 kts 140°
2026-04-21 10:29 46.52876 8.38169 35013 ft 479 kts 140°
2026-04-21 10:29 46.46817 8.42237 35014 ft 479 kts 140°
2026-04-21 10:30 46.40761 8.46294 35015 ft 479 kts 140°
2026-04-21 10:30 46.34674 8.50361 35016 ft 479 kts 140°
2026-04-21 10:31 46.28612 8.54402 35017 ft 479 kts 140°
2026-04-21 10:31 46.22543 8.58436 35017 ft 479 kts 140°
2026-04-21 10:32 46.16477 8.62459 35018 ft 479 kts 140°
2026-04-21 10:32 46.10503 8.66412 35034 ft 480 kts 140°
2026-04-21 10:33 46.04698 8.70744 35035 ft 471 kts 135°
2026-04-21 10:33 45.98959 8.75305 35036 ft 471 kts 135°
2026-04-21 10:34 45.93217 8.79832 35037 ft 471 kts 136°
2026-04-21 10:34 45.87564 8.84260 35013 ft 471 kts 136°
2026-04-21 10:35 45.81748 8.88797 35014 ft 471 kts 136°
2026-04-21 10:35 45.75977 8.93284 35014 ft 471 kts 136°
2026-04-21 10:36 45.70186 8.97772 35015 ft 471 kts 136°
2026-04-21 10:36 45.64621 9.02624 35020 ft 449 kts 125°
2026-04-21 10:36 45.62335 9.05524 35021 ft 432 kts 118°
2026-04-21 10:37 45.60304 9.08631 35017 ft 425 kts 115°
2026-04-21 10:37 45.56376 9.14986 35016 ft 426 kts 115°
2026-04-21 10:38 45.52364 9.21310 35016 ft 426 kts 115°
2026-04-21 10:38 45.48355 9.27607 35016 ft 426 kts 115°
2026-04-21 10:39 45.44331 9.33910 35016 ft 426 kts 115°
2026-04-21 10:39 45.40377 9.40090 35016 ft 426 kts 115°
2026-04-21 10:40 45.36339 9.46385 35016 ft 426 kts 115°
2026-04-21 10:40 45.32319 9.52639 35016 ft 426 kts 115°
2026-04-21 10:41 45.28283 9.58903 35016 ft 426 kts 115°
2026-04-21 10:41 45.24280 9.65101 35067 ft 426 kts 116°
2026-04-21 10:42 45.20292 9.71259 35086 ft 428 kts 116°
2026-04-21 10:42 45.16223 9.77517 35086 ft 427 kts 116°
2026-04-21 10:43 45.12155 9.83764 35086 ft 427 kts 116°
2026-04-21 10:43 45.08105 9.89963 35085 ft 424 kts 116°
2026-04-21 10:44 45.04087 9.96102 35086 ft 423 kts 116°
2026-04-21 10:44 45.00054 10.02257 35086 ft 423 kts 116°
2026-04-21 10:45 44.95994 10.08437 35086 ft 423 kts 116°
2026-04-21 10:45 44.93967 10.11521 34859 ft 425 kts 116°
2026-04-21 10:45 44.91982 10.14528 34088 ft 423 kts 116°
2026-04-21 10:45 44.89839 10.17442 33053 ft 441 kts 124°
2026-04-21 10:46 44.87196 10.20134 31914 ft 485 kts 135°
2026-04-21 10:46 44.84103 10.22441 30775 ft 517 kts 146°
2026-04-21 10:46 44.80683 10.24172 29641 ft 529 kts 158°
2026-04-21 10:46 44.77041 10.25205 28682 ft 531 kts 169°
2026-04-21 10:47 44.73410 10.25487 27824 ft 527 kts 181°
2026-04-21 10:47 44.69785 10.25041 26974 ft 518 kts 192°
2026-04-21 10:47 44.66289 10.23874 26173 ft 504 kts 203°
2026-04-21 10:47 44.63030 10.22253 25448 ft 489 kts 208°
2026-04-21 10:48 44.59832 10.20632 24665 ft 484 kts 204°
2026-04-21 10:48 44.56613 10.19334 23870 ft 477 kts 202°
2026-04-21 10:48 44.53403 10.18112 23126 ft 466 kts 202°
2026-04-21 10:48 44.50328 10.16940 22416 ft 454 kts 203°
2026-04-21 10:49 44.47300 10.15796 21730 ft 443 kts 203°
2026-04-21 10:49 44.44344 10.14742 21004 ft 432 kts 202°
2026-04-21 10:49 44.41419 10.13716 20327 ft 420 kts 202°
2026-04-21 10:49 44.38626 10.12740 19682 ft 409 kts 202°
2026-04-21 10:50 44.35904 10.11789 19053 ft 397 kts 202°
2026-04-21 10:50 44.33245 10.10860 18439 ft 386 kts 202°
2026-04-21 10:50 44.30647 10.09953 17839 ft 375 kts 202°
2026-04-21 10:50 44.28141 10.09079 17263 ft 364 kts 202°
2026-04-21 10:51 44.25708 10.08230 16701 ft 354 kts 202°
2026-04-21 10:51 44.23332 10.07475 16157 ft 349 kts 196°
2026-04-21 10:51 44.20898 10.07321 15636 ft 349 kts 184°
2026-04-21 10:51 44.18468 10.07611 15085 ft 343 kts 181°
2026-04-21 10:52 44.16098 10.07970 14567 ft 336 kts 181°
2026-04-21 10:52 44.13801 10.08326 14068 ft 328 kts 180°
2026-04-21 10:52 44.11515 10.08677 13563 ft 329 kts 180°
2026-04-21 10:52 44.09295 10.09010 13061 ft 335 kts 180°
2026-04-21 10:53 44.06971 10.09367 12551 ft 325 kts 179°
2026-04-21 10:53 44.04746 10.09709 12064 ft 317 kts 179°
2026-04-21 10:53 44.02578 10.10043 11578 ft 309 kts 179°
2026-04-21 10:53 44.00365 10.10375 11094 ft 325 kts 179°
2026-04-21 10:54 43.98138 10.10710 10774 ft 315 kts 178°
2026-04-21 10:54 43.95992 10.11043 10621 ft 298 kts 179°
2026-04-21 10:54 43.93969 10.11355 10452 ft 283 kts 179°
2026-04-21 10:54 43.92039 10.11653 10281 ft 272 kts 179°
2026-04-21 10:55 43.90178 10.11939 10111 ft 262 kts 179°
2026-04-21 10:55 43.88300 10.12218 9896 ft 280 kts 179°
2026-04-21 10:55 43.86339 10.12510 9555 ft 277 kts 179°
2026-04-21 10:55 43.84415 10.12801 9240 ft 272 kts 178°
2026-04-21 10:56 43.82556 10.13082 8941 ft 267 kts 178°
2026-04-21 10:56 43.80683 10.13366 8642 ft 263 kts 178°
2026-04-21 10:56 43.78801 10.13645 8359 ft 278 kts 178°
2026-04-21 10:56 43.76878 10.13931 8039 ft 276 kts 177°
2026-04-21 10:57 43.74977 10.14217 7748 ft 270 kts 177°
2026-04-21 10:57 43.73117 10.14497 7466 ft 266 kts 177°
2026-04-21 10:57 43.71275 10.14774 7187 ft 261 kts 177°
2026-04-21 10:57 43.69448 10.15047 6925 ft 271 kts 176°
2026-04-21 10:58 43.67530 10.15331 6624 ft 273 kts 176°
2026-04-21 10:58 43.65626 10.15616 6332 ft 268 kts 176°
2026-04-21 10:58 43.63779 10.15892 6051 ft 264 kts 176°
2026-04-21 10:58 43.61949 10.16166 5791 ft 259 kts 175°
2026-04-21 10:59 43.60175 10.16431 5508 ft 256 kts 175°
2026-04-21 10:59 43.58380 10.16698 5256 ft 263 kts 175°
2026-04-21 10:59 43.56498 10.16976 4978 ft 267 kts 175°
2026-04-21 10:59 43.54658 10.17250 4712 ft 261 kts 175°
2026-04-21 11:00 43.52867 10.17517 4457 ft 257 kts 174°
2026-04-21 11:00 43.51100 10.17779 4206 ft 252 kts 174°
2026-04-21 11:00 43.49329 10.18042 4040 ft 259 kts 174°
2026-04-21 11:00 43.47442 10.18321 4021 ft 272 kts 174°
2026-04-21 11:01 43.45604 10.18611 4003 ft 257 kts 173°
2026-04-21 11:01 43.43790 10.18996 3896 ft 267 kts 162°
2026-04-21 11:01 43.42274 10.20388 3669 ft 259 kts 126°
2026-04-21 11:02 43.42121 10.24939 3233 ft 245 kts 52°
2026-04-21 11:02 43.43452 10.26299 3015 ft 240 kts 15°
2026-04-21 11:02 43.45075 10.26505 2873 ft 222 kts 357°
2026-04-21 11:02 43.46536 10.26335 2796 ft 197 kts 354°
2026-04-21 11:03 43.47850 10.26136 2600 ft 185 kts 353°
2026-04-21 11:03 43.49099 10.25943 2508 ft 168 kts 353°
2026-04-21 11:03 43.50231 10.25768 2314 ft 162 kts 353°
2026-04-21 11:03 43.51343 10.25595 2062 ft 160 kts 354°
2026-04-21 11:04 43.52452 10.25423 1807 ft 158 kts 354°
2026-04-21 11:04 43.53550 10.25253 1553 ft 157 kts 354°
2026-04-21 11:04 43.54642 10.25224 1293 ft 156 kts 11°
2026-04-21 11:04 43.55602 10.25893 1051 ft 155 kts 38°
2026-04-21 11:05 43.56403 10.26878 942 ft 153 kts 41°
2026-04-21 11:05 43.57215 10.27844 898 ft 154 kts 38°
2026-04-21 11:05 43.58054 10.28765 885 ft 152 kts 37°
2026-04-21 11:05 43.58902 10.29656 998 ft 153 kts 36°
2026-04-21 11:06 43.59768 10.30551 1072 ft 154 kts 36°
2026-04-21 11:06 43.60627 10.31436 1147 ft 154 kts 36°
2026-04-21 11:06 43.61492 10.32322 1221 ft 154 kts 35°
2026-04-21 11:06 43.62358 10.33214 1288 ft 155 kts 36°
2026-04-21 11:07 43.63228 10.34112 1063 ft 146 kts 36°
2026-04-21 11:07 43.64020 10.34929 865 ft 139 kts 36°
2026-04-21 11:07 43.64806 10.35739 679 ft 139 kts 36°
2026-04-21 11:07 43.65581 10.36538 488 ft 136 kts 36°
2026-04-21 11:08 43.66315 10.37295 306 ft 128 kts 36°
2026-04-21 11:08 43.67016 10.38018 113 ft 124 kts 36°
2026-04-21 11:08 43.67692 10.38724 76 ft 127 kts 37°
2026-04-21 11:08 43.68461 10.39528 395 ft 144 kts 36°
2026-04-21 11:09 43.69363 10.40375 613 ft 168 kts 21°
2026-04-21 11:09 43.70504 10.40303 1095 ft 173 kts 326°
2026-04-21 11:09 43.71093 10.38896 1653 ft 174 kts 281°
2026-04-21 11:09 43.71221 10.37272 2302 ft 170 kts 275°
2026-04-21 11:10 43.71043 10.35579 2519 ft 194 kts 246°
2026-04-21 11:10 43.70282 10.33856 2525 ft 225 kts 234°
2026-04-21 11:10 43.69211 10.32141 2504 ft 229 kts 228°
2026-04-21 11:10 43.68156 10.30602 2504 ft 207 kts 227°
2026-04-21 11:11 43.67189 10.29210 2508 ft 192 kts 227°
2026-04-21 11:11 43.66269 10.27890 2519 ft 191 kts 227°
2026-04-21 11:11 43.65262 10.26669 2501 ft 192 kts 205°
2026-04-21 11:11 43.63949 10.26498 2529 ft 193 kts 161°
2026-04-21 11:12 43.62768 10.27387 2372 ft 191 kts 139°
2026-04-21 11:12 43.61744 10.28567 2021 ft 190 kts 137°
2026-04-21 11:12 43.60963 10.29879 1852 ft 163 kts 111°
2026-04-21 11:12 43.60854 10.31311 1564 ft 143 kts 73°
2026-04-21 11:13 43.61290 10.32490 1412 ft 134 kts 53°
2026-04-21 11:13 43.62004 10.33343 1280 ft 136 kts 28°
2026-04-21 11:13 43.62850 10.33949 1026 ft 134 kts 26°
2026-04-21 11:13 43.63665 10.34588 853 ft 134 kts 33°
2026-04-21 11:14 43.64423 10.35352 657 ft 134 kts 36°
2026-04-21 11:14 43.65171 10.36128 539 ft 134 kts 36°
2026-04-21 11:14 43.65933 10.36895 387 ft 135 kts 36°
2026-04-21 11:14 43.66696 10.37683 170 ft 132 kts 36°
2026-04-21 11:15 43.67411 10.38425 26 ft 123 kts 36°
2026-04-21 11:15 43.67999 10.39032 4 ft 71 kts 36°
2026-04-21 11:15 43.68209 10.39251 7 ft 16 kts 36°
2026-04-21 11:15 43.68330 10.39373 8 ft 25 kts 36°
2026-04-21 11:16 43.68508 10.39558 8 ft 39 kts 35°
2026-04-21 11:16 43.68716 10.39773 8 ft 34 kts 36°
2026-04-21 11:16 43.68892 10.39953 8 ft 29 kts 36°
2026-04-21 11:16 43.69053 10.40122 8 ft 29 kts 37°
2026-04-21 11:17 43.69209 10.40281 8 ft 24 kts 30°
2026-04-21 11:17 43.69330 10.40204 8 ft 20 kts 305°
2026-04-21 11:17 43.69436 10.40092 8 ft 17 kts 349°
2026-04-21 11:17 43.69557 10.40066 9 ft 17 kts 354°
2026-04-21 11:18 43.69658 10.40045 11 ft 11 kts 332°
2026-04-21 11:18 43.69715 10.40024 11 ft 6 kts
2026-04-21 11:18 43.69741 10.40029 11 ft 1 kts
2026-04-21 11:18 43.69746 10.40030 11 ft 0 kts
2026-04-21 11:19 43.69747 10.40030 11 ft 0 kts